Year,Month,Day,Hour,Minute,Value (Times are PST for temperature in C)
2012,07,06,00,00,14.30
2012,07,06,00,01,14.20
2012,07,06,00,02,14.20
2012,07,06,00,03,14.20
2012,07,06,00,04,14.20
2012,07,06,00,05,14.20
2012,07,06,00,06,14.20
2012,07,06,00,07,14.10
2012,07,06,00,08,14.10
2012,07,06,00,09,14.10
2012,07,06,00,10,14.10
2012,07,06,00,11,14.10
2012,07,06,00,12,14.00
2012,07,06,00,13,14.00
2012,07,06,00,14,14.00
2012,07,06,00,15,14.00
2012,07,06,00,16,14.00
2012,07,06,00,17,13.90
2012,07,06,00,18,13.90
2012,07,06,00,19,13.90
2012,07,06,00,20,13.90
2012,07,06,00,21,13.90
2012,07,06,00,22,13.90
2012,07,06,00,23,13.80
2012,07,06,00,24,13.80
2012,07,06,00,25,13.80
2012,07,06,00,26,13.80
2012,07,06,00,27,13.80
2012,07,06,00,28,13.80
2012,07,06,00,29,13.80
2012,07,06,00,30,13.70
2012,07,06,00,31,13.70
2012,07,06,00,32,13.70
2012,07,06,00,33,13.70
2012,07,06,00,34,13.70
2012,07,06,00,35,13.70
2012,07,06,00,36,13.60
2012,07,06,00,37,13.60
2012,07,06,00,38,13.60
2012,07,06,00,39,13.60
2012,07,06,00,40,13.50
2012,07,06,00,41,13.50
2012,07,06,00,42,13.50
2012,07,06,00,43,13.50
2012,07,06,00,44,13.40
2012,07,06,00,45,13.40
2012,07,06,00,46,13.40
2012,07,06,00,47,13.40
2012,07,06,00,48,13.30
2012,07,06,00,49,13.30
2012,07,06,00,50,13.30
2012,07,06,00,51,13.30
2012,07,06,00,52,13.30
2012,07,06,00,53,13.30
2012,07,06,00,54,13.20
2012,07,06,00,55,13.20
2012,07,06,00,56,13.20
2012,07,06,00,57,13.20
2012,07,06,00,58,13.20
2012,07,06,00,59,13.20
2012,07,06,01,00,13.20
2012,07,06,01,01,13.20
2012,07,06,01,02,13.20
2012,07,06,01,03,13.10
2012,07,06,01,04,13.10
2012,07,06,01,05,13.10
2012,07,06,01,06,13.10
2012,07,06,01,07,13.10
2012,07,06,01,08,13.10
2012,07,06,01,09,13.10
2012,07,06,01,10,13.10
2012,07,06,01,11,13.10
2012,07,06,01,12,13.10
2012,07,06,01,13,13.10
2012,07,06,01,14,13.10
2012,07,06,01,15,13.00
2012,07,06,01,16,13.00
2012,07,06,01,17,13.00
2012,07,06,01,18,13.00
2012,07,06,01,19,13.00
2012,07,06,01,20,13.00
2012,07,06,01,21,12.90
2012,07,06,01,22,12.90
2012,07,06,01,23,12.90
2012,07,06,01,24,12.90
2012,07,06,01,25,12.90
2012,07,06,01,26,12.90
2012,07,06,01,27,12.90
2012,07,06,01,28,12.90
2012,07,06,01,29,12.80
2012,07,06,01,30,12.80
2012,07,06,01,31,12.80
2012,07,06,01,32,12.80
2012,07,06,01,33,12.80
2012,07,06,01,34,12.80
2012,07,06,01,35,12.80
2012,07,06,01,36,12.80
2012,07,06,01,37,12.80
2012,07,06,01,38,12.80
2012,07,06,01,39,12.80
2012,07,06,01,40,12.80
2012,07,06,01,41,12.80
2012,07,06,01,42,12.80
2012,07,06,01,43,12.80
2012,07,06,01,44,12.80
2012,07,06,01,45,12.70
2012,07,06,01,46,12.70
2012,07,06,01,47,12.70
2012,07,06,01,48,12.70
2012,07,06,01,49,12.70
2012,07,06,01,50,12.70
2012,07,06,01,51,12.70
2012,07,06,01,52,12.70
2012,07,06,01,53,12.70
2012,07,06,01,54,12.70
2012,07,06,01,55,12.70
2012,07,06,01,56,12.70
2012,07,06,01,57,12.70
2012,07,06,01,58,12.70
2012,07,06,01,59,12.70
2012,07,06,02,00,12.70
2012,07,06,02,01,12.70
2012,07,06,02,02,12.60
2012,07,06,02,03,12.60
2012,07,06,02,04,12.60
2012,07,06,02,05,12.60
2012,07,06,02,06,12.60
2012,07,06,02,07,12.60
2012,07,06,02,08,12.60
2012,07,06,02,09,12.50
2012,07,06,02,10,12.50
2012,07,06,02,11,12.50
2012,07,06,02,12,12.50
2012,07,06,02,13,12.50
2012,07,06,02,14,12.40
2012,07,06,02,15,12.40
2012,07,06,02,16,12.40
2012,07,06,02,17,12.40
2012,07,06,02,18,12.40
2012,07,06,02,19,12.40
2012,07,06,02,20,12.40
2012,07,06,02,21,12.30
2012,07,06,02,22,12.30
2012,07,06,02,23,12.30
2012,07,06,02,24,12.30
2012,07,06,02,25,12.30
2012,07,06,02,26,12.30
2012,07,06,02,27,12.30
2012,07,06,02,28,12.30
2012,07,06,02,29,12.30
2012,07,06,02,30,12.20
2012,07,06,02,31,12.20
2012,07,06,02,32,12.20
2012,07,06,02,33,12.20
2012,07,06,02,34,12.20
2012,07,06,02,35,12.20
2012,07,06,02,36,12.20
2012,07,06,02,37,12.20
2012,07,06,02,38,12.20
2012,07,06,02,39,12.20
2012,07,06,02,40,12.20
2012,07,06,02,41,12.20
2012,07,06,02,42,12.20
2012,07,06,02,43,12.20
2012,07,06,02,44,12.20
2012,07,06,02,45,12.10
2012,07,06,02,46,12.10
2012,07,06,02,47,12.10
2012,07,06,02,48,12.10
2012,07,06,02,49,12.10
2012,07,06,02,50,12.10
2012,07,06,02,51,12.10
2012,07,06,02,52,12.10
2012,07,06,02,53,12.10
2012,07,06,02,54,12.10
2012,07,06,02,55,12.00
2012,07,06,02,56,12.00
2012,07,06,02,57,12.00
2012,07,06,02,58,12.00
2012,07,06,02,59,12.00
2012,07,06,03,00,12.00
2012,07,06,03,01,12.00
2012,07,06,03,02,12.00
2012,07,06,03,03,12.00
2012,07,06,03,04,12.00
2012,07,06,03,05,12.00
2012,07,06,03,06,11.90
2012,07,06,03,07,11.90
2012,07,06,03,08,11.90
2012,07,06,03,09,11.90
2012,07,06,03,10,11.90
2012,07,06,03,11,11.90
2012,07,06,03,12,11.90
2012,07,06,03,13,11.90
2012,07,06,03,14,11.90
2012,07,06,03,15,11.80
2012,07,06,03,16,11.80
2012,07,06,03,17,11.80
2012,07,06,03,18,11.90
2012,07,06,03,19,11.90
2012,07,06,03,20,11.90
2012,07,06,03,21,11.90
2012,07,06,03,22,11.90
2012,07,06,03,23,11.90
2012,07,06,03,24,11.90
2012,07,06,03,25,11.90
2012,07,06,03,26,11.80
2012,07,06,03,27,11.80
2012,07,06,03,28,11.80
2012,07,06,03,29,11.80
2012,07,06,03,30,11.80
2012,07,06,03,31,11.80
2012,07,06,03,32,11.80
2012,07,06,03,33,11.80
2012,07,06,03,34,11.70
2012,07,06,03,35,11.70
2012,07,06,03,36,11.70
2012,07,06,03,37,11.70
2012,07,06,03,38,11.70
2012,07,06,03,39,11.70
2012,07,06,03,40,11.60
2012,07,06,03,41,11.60
2012,07,06,03,42,11.60
2012,07,06,03,43,11.60
2012,07,06,03,44,11.60
2012,07,06,03,45,11.60
2012,07,06,03,46,11.60
2012,07,06,03,47,11.50
2012,07,06,03,48,11.50
2012,07,06,03,49,11.50
2012,07,06,03,50,11.40
2012,07,06,03,51,11.40
2012,07,06,03,52,11.40
2012,07,06,03,53,11.40
2012,07,06,03,54,11.40
2012,07,06,03,55,11.40
2012,07,06,03,56,11.40
2012,07,06,03,57,11.40
2012,07,06,03,58,11.40
2012,07,06,03,59,11.40
2012,07,06,04,00,11.40
2012,07,06,04,01,11.40
2012,07,06,04,02,11.40
2012,07,06,04,03,11.40
2012,07,06,04,04,11.40
2012,07,06,04,05,11.30
2012,07,06,04,06,11.30
2012,07,06,04,07,11.30
2012,07,06,04,08,11.30
2012,07,06,04,09,11.30
2012,07,06,04,10,11.30
2012,07,06,04,11,11.30
2012,07,06,04,12,11.30
2012,07,06,04,13,11.30
2012,07,06,04,14,11.30
2012,07,06,04,15,11.30
2012,07,06,04,16,11.30
2012,07,06,04,17,11.30
2012,07,06,04,18,11.30
2012,07,06,04,19,11.30
2012,07,06,04,20,11.30
2012,07,06,04,21,11.30
2012,07,06,04,22,11.30
2012,07,06,04,23,11.30
2012,07,06,04,24,11.30
2012,07,06,04,25,11.30
2012,07,06,04,26,11.30
2012,07,06,04,27,11.30
2012,07,06,04,28,11.30
2012,07,06,04,29,11.30
2012,07,06,04,30,11.30
2012,07,06,04,31,11.30
2012,07,06,04,32,11.30
2012,07,06,04,33,11.30
2012,07,06,04,34,11.30
2012,07,06,04,35,11.30
2012,07,06,04,36,11.30
2012,07,06,04,37,11.20
2012,07,06,04,38,11.20
2012,07,06,04,39,11.20
2012,07,06,04,40,11.20
2012,07,06,04,41,11.20
2012,07,06,04,42,11.20
2012,07,06,04,43,11.20
2012,07,06,04,44,11.10
2012,07,06,04,45,11.10
2012,07,06,04,46,11.10
2012,07,06,04,47,11.10
2012,07,06,04,48,11.10
2012,07,06,04,49,11.10
2012,07,06,04,50,11.10
2012,07,06,04,51,11.10
2012,07,06,04,52,11.10
2012,07,06,04,53,11.10
2012,07,06,04,54,11.10
2012,07,06,04,55,11.10
2012,07,06,04,56,11.10
2012,07,06,04,57,11.10
2012,07,06,04,58,11.10
2012,07,06,04,59,11.10
2012,07,06,05,00,11.20
2012,07,06,05,01,11.20
2012,07,06,05,02,11.20
2012,07,06,05,03,11.20
2012,07,06,05,04,11.20
2012,07,06,05,05,11.30
2012,07,06,05,06,11.30
2012,07,06,05,07,11.30
2012,07,06,05,08,11.30
2012,07,06,05,09,11.30
2012,07,06,05,10,11.30
2012,07,06,05,11,11.30
2012,07,06,05,12,11.30
2012,07,06,05,13,11.30
2012,07,06,05,14,11.30
2012,07,06,05,15,11.30
2012,07,06,05,16,11.30
2012,07,06,05,17,11.30
2012,07,06,05,18,11.30
2012,07,06,05,19,11.30
2012,07,06,05,20,11.30
2012,07,06,05,21,11.30
2012,07,06,05,22,11.30
2012,07,06,05,23,11.30
2012,07,06,05,24,11.40
2012,07,06,05,25,11.40
2012,07,06,05,26,11.40
2012,07,06,05,27,11.40
2012,07,06,05,28,11.40
2012,07,06,05,29,11.30
2012,07,06,05,30,11.30
2012,07,06,05,31,11.30
2012,07,06,05,32,11.30
2012,07,06,05,33,11.30
2012,07,06,05,34,11.30
2012,07,06,05,35,11.20
2012,07,06,05,36,11.20
2012,07,06,05,37,11.20
2012,07,06,05,38,11.20
2012,07,06,05,39,11.20
2012,07,06,05,40,11.20
2012,07,06,05,41,11.20
2012,07,06,05,42,11.20
2012,07,06,05,43,11.20
2012,07,06,05,44,11.30
2012,07,06,05,45,11.30
2012,07,06,05,46,11.30
2012,07,06,05,47,11.30
2012,07,06,05,48,11.30
2012,07,06,05,49,11.30
2012,07,06,05,50,11.30
2012,07,06,05,51,11.30
2012,07,06,05,52,11.30
2012,07,06,05,53,11.40
2012,07,06,05,54,11.40
2012,07,06,05,55,11.40
2012,07,06,05,56,11.40
2012,07,06,05,57,11.40
2012,07,06,05,58,11.40
2012,07,06,05,59,11.40
2012,07,06,06,00,11.40
2012,07,06,06,01,11.40
2012,07,06,06,02,11.50
2012,07,06,06,03,11.50
2012,07,06,06,04,11.60
2012,07,06,06,05,11.60
2012,07,06,06,06,11.60
2012,07,06,06,07,11.70
2012,07,06,06,08,11.70
2012,07,06,06,09,11.70
2012,07,06,06,10,11.80
2012,07,06,06,11,11.80
2012,07,06,06,12,11.80
2012,07,06,06,13,11.80
2012,07,06,06,14,11.80
2012,07,06,06,15,11.80
2012,07,06,06,16,11.80
2012,07,06,06,17,11.80
2012,07,06,06,18,11.80
2012,07,06,06,19,11.90
2012,07,06,06,20,11.90
2012,07,06,06,21,11.90
2012,07,06,06,22,11.90
2012,07,06,06,23,11.90
2012,07,06,06,24,12.00
2012,07,06,06,25,12.00
2012,07,06,06,26,12.10
2012,07,06,06,27,12.10
2012,07,06,06,28,12.10
2012,07,06,06,29,12.10
2012,07,06,06,30,12.20
2012,07,06,06,31,12.20
2012,07,06,06,32,12.20
2012,07,06,06,33,12.20
2012,07,06,06,34,12.30
2012,07,06,06,35,12.30
2012,07,06,06,36,12.30
2012,07,06,06,37,12.40
2012,07,06,06,38,12.40
2012,07,06,06,39,12.50
2012,07,06,06,40,12.50
2012,07,06,06,41,12.60
2012,07,06,06,42,12.60
2012,07,06,06,43,12.70
2012,07,06,06,44,12.70
2012,07,06,06,45,12.80
2012,07,06,06,46,12.80
2012,07,06,06,47,12.90
2012,07,06,06,48,12.90
2012,07,06,06,49,13.00
2012,07,06,06,50,13.10
2012,07,06,06,51,13.10
2012,07,06,06,52,13.20
2012,07,06,06,53,13.20
2012,07,06,06,54,13.20
2012,07,06,06,55,13.30
2012,07,06,06,56,13.40
2012,07,06,06,57,13.40
2012,07,06,06,58,13.50
2012,07,06,06,59,13.50
2012,07,06,07,00,13.60
2012,07,06,07,01,13.70
2012,07,06,07,02,13.70
2012,07,06,07,03,13.80
2012,07,06,07,04,13.90
2012,07,06,07,05,14.00
2012,07,06,07,06,14.00
2012,07,06,07,07,14.10
2012,07,06,07,08,14.20
2012,07,06,07,09,14.20
2012,07,06,07,10,14.30
2012,07,06,07,11,14.30
2012,07,06,07,12,14.40
2012,07,06,07,13,14.50
2012,07,06,07,14,14.50
2012,07,06,07,15,14.60
2012,07,06,07,16,14.70
2012,07,06,07,17,14.70
2012,07,06,07,18,14.80
2012,07,06,07,19,14.80
2012,07,06,07,20,14.90
2012,07,06,07,21,15.00
2012,07,06,07,22,15.10
2012,07,06,07,23,15.10
2012,07,06,07,24,15.20
2012,07,06,07,25,15.20
2012,07,06,07,26,15.30
2012,07,06,07,27,15.40
2012,07,06,07,28,15.40
2012,07,06,07,29,15.50
2012,07,06,07,30,15.60
2012,07,06,07,31,15.70
2012,07,06,07,32,15.70
2012,07,06,07,33,15.80
2012,07,06,07,34,15.90
2012,07,06,07,35,16.00
2012,07,06,07,36,16.00
2012,07,06,07,37,16.10
2012,07,06,07,38,16.20
2012,07,06,07,39,16.20
2012,07,06,07,40,16.30
2012,07,06,07,41,16.40
2012,07,06,07,42,16.40
2012,07,06,07,43,16.50
2012,07,06,07,44,16.60
2012,07,06,07,45,16.60
2012,07,06,07,46,16.70
2012,07,06,07,47,16.70
2012,07,06,07,48,16.70
2012,07,06,07,49,16.70
2012,07,06,07,50,16.80
2012,07,06,07,51,16.80
2012,07,06,07,52,16.80
2012,07,06,07,53,16.90
2012,07,06,07,54,17.00
2012,07,06,07,55,17.00
2012,07,06,07,56,17.10
2012,07,06,07,57,17.10
2012,07,06,07,58,17.20
2012,07,06,07,59,17.30
2012,07,06,08,00,17.30
2012,07,06,08,01,17.40
2012,07,06,08,02,17.50
2012,07,06,08,03,17.50
2012,07,06,08,04,17.60
2012,07,06,08,05,17.60
2012,07,06,08,06,17.70
2012,07,06,08,07,17.70
2012,07,06,08,08,17.80
2012,07,06,08,09,17.80
2012,07,06,08,10,17.90
2012,07,06,08,11,18.00
2012,07,06,08,12,18.00
2012,07,06,08,13,18.10
2012,07,06,08,14,18.10
2012,07,06,08,15,18.20
2012,07,06,08,16,18.20
2012,07,06,08,17,18.10
2012,07,06,08,18,18.10
2012,07,06,08,19,18.10
2012,07,06,08,20,18.00
2012,07,06,08,21,18.00
2012,07,06,08,22,18.00
2012,07,06,08,23,17.90
2012,07,06,08,24,17.90
2012,07,06,08,25,18.00
2012,07,06,08,26,18.00
2012,07,06,08,27,18.10
2012,07,06,08,28,18.10
2012,07,06,08,29,18.20
2012,07,06,08,30,18.20
2012,07,06,08,31,18.30
2012,07,06,08,32,18.30
2012,07,06,08,33,18.30
2012,07,06,08,34,18.30
2012,07,06,08,35,18.40
2012,07,06,08,36,18.40
2012,07,06,08,37,18.50
2012,07,06,08,38,18.60
2012,07,06,08,39,18.60
2012,07,06,08,40,18.60
2012,07,06,08,41,18.60
2012,07,06,08,42,18.50
2012,07,06,08,43,18.40
2012,07,06,08,44,18.40
2012,07,06,08,45,18.40
2012,07,06,08,46,18.40
2012,07,06,08,47,18.40
2012,07,06,08,48,18.40
2012,07,06,08,49,18.40
2012,07,06,08,50,18.50
2012,07,06,08,51,18.50
2012,07,06,08,52,18.60
2012,07,06,08,53,18.60
2012,07,06,08,54,18.60
2012,07,06,08,55,18.60
2012,07,06,08,56,18.60
2012,07,06,08,57,18.70
2012,07,06,08,58,18.80
2012,07,06,08,59,18.70
2012,07,06,09,00,18.70
2012,07,06,09,01,18.70
2012,07,06,09,02,18.80
2012,07,06,09,03,18.80
2012,07,06,09,04,18.80
2012,07,06,09,05,18.80
2012,07,06,09,06,18.80
2012,07,06,09,07,18.70
2012,07,06,09,08,18.70
2012,07,06,09,09,18.70
2012,07,06,09,10,18.70
2012,07,06,09,11,18.70
2012,07,06,09,12,18.70
2012,07,06,09,13,18.70
2012,07,06,09,14,18.60
2012,07,06,09,15,18.60
2012,07,06,09,16,18.60
2012,07,06,09,17,18.60
2012,07,06,09,18,18.60
2012,07,06,09,19,18.60
2012,07,06,09,20,18.60
2012,07,06,09,21,18.60
2012,07,06,09,22,18.60
2012,07,06,09,23,18.60
2012,07,06,09,24,18.60
2012,07,06,09,25,18.60
2012,07,06,09,26,18.60
2012,07,06,09,27,18.60
2012,07,06,09,28,18.70
2012,07,06,09,29,18.70
2012,07,06,09,30,18.80
2012,07,06,09,31,18.80
2012,07,06,09,32,18.80
2012,07,06,09,33,18.90
2012,07,06,09,34,18.90
2012,07,06,09,35,18.90
2012,07,06,09,36,18.90
2012,07,06,09,37,18.90
2012,07,06,09,38,18.90
2012,07,06,09,39,18.90
2012,07,06,09,40,19.00
2012,07,06,09,41,19.00
2012,07,06,09,42,19.00
2012,07,06,09,43,18.90
2012,07,06,09,44,18.90
2012,07,06,09,45,18.80
2012,07,06,09,46,18.80
2012,07,06,09,47,18.90
2012,07,06,09,48,18.90
2012,07,06,09,49,18.90
2012,07,06,09,50,18.80
2012,07,06,09,51,18.80
2012,07,06,09,52,18.80
2012,07,06,09,53,18.80
2012,07,06,09,54,18.90
2012,07,06,09,55,19.00
2012,07,06,09,56,19.10
2012,07,06,09,57,19.10
2012,07,06,09,58,19.20
2012,07,06,09,59,19.20
2012,07,06,10,00,19.20
2012,07,06,10,01,19.20
2012,07,06,10,02,19.20
2012,07,06,10,03,19.20
2012,07,06,10,04,19.20
2012,07,06,10,05,19.20
2012,07,06,10,06,19.10
2012,07,06,10,07,19.10
2012,07,06,10,08,19.10
2012,07,06,10,09,19.10
2012,07,06,10,10,19.10
2012,07,06,10,11,19.10
2012,07,06,10,12,19.10
2012,07,06,10,13,19.20
2012,07,06,10,14,19.30
2012,07,06,10,15,19.40
2012,07,06,10,16,19.50
2012,07,06,10,17,19.60
2012,07,06,10,18,19.70
2012,07,06,10,19,19.70
2012,07,06,10,20,19.80
2012,07,06,10,21,19.80
2012,07,06,10,22,19.90
2012,07,06,10,23,19.90
2012,07,06,10,24,19.90
2012,07,06,10,25,19.80
2012,07,06,10,26,19.80
2012,07,06,10,27,19.90
2012,07,06,10,28,19.90
2012,07,06,10,29,20.00
2012,07,06,10,30,20.00
2012,07,06,10,31,20.10
2012,07,06,10,32,20.20
2012,07,06,10,33,20.20
2012,07,06,10,34,20.20
2012,07,06,10,35,20.30
2012,07,06,10,36,20.40
2012,07,06,10,37,20.50
2012,07,06,10,38,20.60
2012,07,06,10,39,20.60
2012,07,06,10,40,20.60
2012,07,06,10,41,20.70
2012,07,06,10,42,20.70
2012,07,06,10,43,20.80
2012,07,06,10,44,20.80
2012,07,06,10,45,20.90
2012,07,06,10,46,21.00
2012,07,06,10,47,21.20
2012,07,06,10,48,21.20
2012,07,06,10,49,21.20
2012,07,06,10,50,21.20
2012,07,06,10,51,21.30
2012,07,06,10,52,21.40
2012,07,06,10,53,21.40
2012,07,06,10,54,21.40
2012,07,06,10,55,21.50
2012,07,06,10,56,21.60
2012,07,06,10,57,21.60
2012,07,06,10,58,21.60
2012,07,06,10,59,21.60
2012,07,06,11,00,21.60
2012,07,06,11,01,21.60
2012,07,06,11,02,21.60
2012,07,06,11,03,21.60
2012,07,06,11,04,21.50
2012,07,06,11,05,21.40
2012,07,06,11,06,21.40
2012,07,06,11,07,21.40
2012,07,06,11,08,21.40
2012,07,06,11,09,21.50
2012,07,06,11,10,21.50
2012,07,06,11,11,21.60
2012,07,06,11,12,21.60
2012,07,06,11,13,21.60
2012,07,06,11,14,21.60
2012,07,06,11,15,21.70
2012,07,06,11,16,21.70
2012,07,06,11,17,21.80
2012,07,06,11,18,21.80
2012,07,06,11,19,21.80
2012,07,06,11,20,21.80
2012,07,06,11,21,21.80
2012,07,06,11,22,21.90
2012,07,06,11,23,22.00
2012,07,06,11,24,22.10
2012,07,06,11,25,22.20
2012,07,06,11,26,22.20
2012,07,06,11,27,22.30
2012,07,06,11,28,22.20
2012,07,06,11,29,22.00
2012,07,06,11,30,21.90
2012,07,06,11,31,21.80
2012,07,06,11,32,21.70
2012,07,06,11,33,21.60
2012,07,06,11,34,21.50
2012,07,06,11,35,21.40
2012,07,06,11,36,21.40
2012,07,06,11,37,21.40
2012,07,06,11,38,21.30
2012,07,06,11,39,21.30
2012,07,06,11,40,21.20
2012,07,06,11,41,21.20
2012,07,06,11,42,21.20
2012,07,06,11,43,21.20
2012,07,06,11,44,21.20
2012,07,06,11,45,21.30
2012,07,06,11,46,21.30
2012,07,06,11,47,21.40
2012,07,06,11,48,21.50
2012,07,06,11,49,21.60
2012,07,06,11,50,21.80
2012,07,06,11,51,21.80
2012,07,06,11,52,21.90
2012,07,06,11,53,22.00
2012,07,06,11,54,22.10
2012,07,06,11,55,22.20
2012,07,06,11,56,22.20
2012,07,06,11,57,22.20
2012,07,06,11,58,22.20
2012,07,06,11,59,22.10
2012,07,06,12,00,22.10
2012,07,06,12,01,22.20
2012,07,06,12,02,22.20
2012,07,06,12,03,22.10
2012,07,06,12,04,22.00
2012,07,06,12,05,21.90
2012,07,06,12,06,21.90
2012,07,06,12,07,21.80
2012,07,06,12,08,21.80
2012,07,06,12,09,21.80
2012,07,06,12,10,21.70
2012,07,06,12,11,21.80
2012,07,06,12,12,21.80
2012,07,06,12,13,21.80
2012,07,06,12,14,21.90
2012,07,06,12,15,21.90
2012,07,06,12,16,21.90
2012,07,06,12,17,21.90
2012,07,06,12,18,21.80
2012,07,06,12,19,21.70
2012,07,06,12,20,21.70
2012,07,06,12,21,21.60
2012,07,06,12,22,21.60
2012,07,06,12,23,21.60
2012,07,06,12,24,21.50
2012,07,06,12,25,21.50
2012,07,06,12,26,21.50
2012,07,06,12,27,21.40
2012,07,06,12,28,21.40
2012,07,06,12,29,21.40
2012,07,06,12,30,21.50
2012,07,06,12,31,21.60
2012,07,06,12,32,21.60
2012,07,06,12,33,21.60
2012,07,06,12,34,21.60
2012,07,06,12,35,21.60
2012,07,06,12,36,21.60
2012,07,06,12,37,21.60
2012,07,06,12,38,21.60
2012,07,06,12,39,21.70
2012,07,06,12,40,21.90
2012,07,06,12,41,22.00
2012,07,06,12,42,22.00
2012,07,06,12,43,22.00
2012,07,06,12,44,22.10
2012,07,06,12,45,22.10
2012,07,06,12,46,22.20
2012,07,06,12,47,22.20
2012,07,06,12,48,22.20
2012,07,06,12,49,22.20
2012,07,06,12,50,22.20
2012,07,06,12,51,22.30
2012,07,06,12,52,22.30
2012,07,06,12,53,22.30
2012,07,06,12,54,22.30
2012,07,06,12,55,22.20
2012,07,06,12,56,22.20
2012,07,06,12,57,22.20
2012,07,06,12,58,22.20
2012,07,06,12,59,22.30
2012,07,06,13,00,22.40
2012,07,06,13,01,22.60
2012,07,06,13,02,22.70
2012,07,06,13,03,22.70
2012,07,06,13,04,22.70
2012,07,06,13,05,22.70
2012,07,06,13,06,22.80
2012,07,06,13,07,22.80
2012,07,06,13,08,22.80
2012,07,06,13,09,22.90
2012,07,06,13,10,22.90
2012,07,06,13,11,22.90
2012,07,06,13,12,22.90
2012,07,06,13,13,23.00
2012,07,06,13,14,23.10
2012,07,06,13,15,23.20
2012,07,06,13,16,23.20
2012,07,06,13,17,23.30
2012,07,06,13,18,23.30
2012,07,06,13,19,23.30
2012,07,06,13,20,23.30
2012,07,06,13,21,23.20
2012,07,06,13,22,23.10
2012,07,06,13,23,22.90
2012,07,06,13,24,22.80
2012,07,06,13,25,22.80
2012,07,06,13,26,22.90
2012,07,06,13,27,23.00
2012,07,06,13,28,23.20
2012,07,06,13,29,23.30
2012,07,06,13,30,23.40
2012,07,06,13,31,23.40
2012,07,06,13,32,23.40
2012,07,06,13,33,23.40
2012,07,06,13,34,23.40
2012,07,06,13,35,23.40
2012,07,06,13,36,23.40
2012,07,06,13,37,23.30
2012,07,06,13,38,23.30
2012,07,06,13,39,23.40
2012,07,06,13,40,23.50
2012,07,06,13,41,23.60
2012,07,06,13,42,23.70
2012,07,06,13,43,23.70
2012,07,06,13,44,23.60
2012,07,06,13,45,23.60
2012,07,06,13,46,23.50
2012,07,06,13,47,23.60
2012,07,06,13,48,23.70
2012,07,06,13,49,23.80
2012,07,06,13,50,23.70
2012,07,06,13,51,23.70
2012,07,06,13,52,23.60
2012,07,06,13,53,23.50
2012,07,06,13,54,23.40
2012,07,06,13,55,23.40
2012,07,06,13,56,23.40
2012,07,06,13,57,23.50
2012,07,06,13,58,23.60
2012,07,06,13,59,23.70
2012,07,06,14,00,23.80
2012,07,06,14,01,23.80
2012,07,06,14,02,23.80
2012,07,06,14,03,23.90
2012,07,06,14,04,23.90
2012,07,06,14,05,24.00
2012,07,06,14,06,24.10
2012,07,06,14,07,24.10
2012,07,06,14,08,24.20
2012,07,06,14,09,24.30
2012,07,06,14,10,24.50
2012,07,06,14,11,24.60
2012,07,06,14,12,24.60
2012,07,06,14,13,24.70
2012,07,06,14,14,24.70
2012,07,06,14,15,24.60
2012,07,06,14,16,24.60
2012,07,06,14,17,24.70
2012,07,06,14,18,24.80
2012,07,06,14,19,24.80
2012,07,06,14,20,24.80
2012,07,06,14,21,24.80
2012,07,06,14,22,24.60
2012,07,06,14,23,24.50
2012,07,06,14,24,24.40
2012,07,06,14,25,24.30
2012,07,06,14,26,24.20
2012,07,06,14,27,24.10
2012,07,06,14,28,24.00
2012,07,06,14,29,24.00
2012,07,06,14,30,23.90
2012,07,06,14,31,23.90
2012,07,06,14,32,23.90
2012,07,06,14,33,23.80
2012,07,06,14,34,23.80
2012,07,06,14,35,23.90
2012,07,06,14,36,23.90
2012,07,06,14,37,23.90
2012,07,06,14,38,24.00
2012,07,06,14,39,24.00
2012,07,06,14,40,24.00
2012,07,06,14,41,24.10
2012,07,06,14,42,24.20
2012,07,06,14,43,24.10
2012,07,06,14,44,24.10
2012,07,06,14,45,24.00
2012,07,06,14,46,24.00
2012,07,06,14,47,23.90
2012,07,06,14,48,23.90
2012,07,06,14,49,24.00
2012,07,06,14,50,24.10
2012,07,06,14,51,24.20
2012,07,06,14,52,24.20
2012,07,06,14,53,24.20
2012,07,06,14,54,24.20
2012,07,06,14,55,24.20
2012,07,06,14,56,24.30
2012,07,06,14,57,24.30
2012,07,06,14,58,24.40
2012,07,06,14,59,24.40
2012,07,06,15,00,24.40
2012,07,06,15,01,24.50
2012,07,06,15,02,24.50
2012,07,06,15,03,24.50
2012,07,06,15,04,24.40
2012,07,06,15,05,24.40
2012,07,06,15,06,24.30
2012,07,06,15,07,24.40
2012,07,06,15,08,24.40
2012,07,06,15,09,24.40
2012,07,06,15,10,24.40
2012,07,06,15,11,24.40
2012,07,06,15,12,24.30
2012,07,06,15,13,24.30
2012,07,06,15,14,24.30
2012,07,06,15,15,24.20
2012,07,06,15,16,24.20
2012,07,06,15,17,24.20
2012,07,06,15,18,24.20
2012,07,06,15,19,24.20
2012,07,06,15,20,24.10
2012,07,06,15,21,24.10
2012,07,06,15,22,24.20
2012,07,06,15,23,24.20
2012,07,06,15,24,24.30
2012,07,06,15,25,24.40
2012,07,06,15,26,24.40
2012,07,06,15,27,24.50
2012,07,06,15,28,24.50
2012,07,06,15,29,24.50
2012,07,06,15,30,24.50
2012,07,06,15,31,24.40
2012,07,06,15,32,24.40
2012,07,06,15,33,24.50
2012,07,06,15,34,24.50
2012,07,06,15,35,24.60
2012,07,06,15,36,24.70
2012,07,06,15,37,24.70
2012,07,06,15,38,24.80
2012,07,06,15,39,24.80
2012,07,06,15,40,24.80
2012,07,06,15,41,24.70
2012,07,06,15,42,24.70
2012,07,06,15,43,24.60
2012,07,06,15,44,24.60
2012,07,06,15,45,24.60
2012,07,06,15,46,24.70
2012,07,06,15,47,24.70
2012,07,06,15,48,24.70
2012,07,06,15,49,24.60
2012,07,06,15,50,24.60
2012,07,06,15,51,24.60
2012,07,06,15,52,24.60
2012,07,06,15,53,24.60
2012,07,06,15,54,24.60
2012,07,06,15,55,24.70
2012,07,06,15,56,24.80
2012,07,06,15,57,24.90
2012,07,06,15,58,24.90
2012,07,06,15,59,25.00
2012,07,06,16,00,25.10
2012,07,06,16,01,25.10
2012,07,06,16,02,25.10
2012,07,06,16,03,25.10
2012,07,06,16,04,25.00
2012,07,06,16,05,25.00
2012,07,06,16,06,24.90
2012,07,06,16,07,24.90
2012,07,06,16,08,24.90
2012,07,06,16,09,24.80
2012,07,06,16,10,24.80
2012,07,06,16,11,24.80
2012,07,06,16,12,24.80
2012,07,06,16,13,24.80
2012,07,06,16,14,24.80
2012,07,06,16,15,24.80
2012,07,06,16,16,24.80
2012,07,06,16,17,24.80
2012,07,06,16,18,24.80
2012,07,06,16,19,24.90
2012,07,06,16,20,24.90
2012,07,06,16,21,25.00
2012,07,06,16,22,25.00
2012,07,06,16,23,25.00
2012,07,06,16,24,25.00
2012,07,06,16,25,24.90
2012,07,06,16,26,24.90
2012,07,06,16,27,24.90
2012,07,06,16,28,25.00
2012,07,06,16,29,25.00
2012,07,06,16,30,25.10
2012,07,06,16,31,25.20
2012,07,06,16,32,25.30
2012,07,06,16,33,25.40
2012,07,06,16,34,25.50
2012,07,06,16,35,25.60
2012,07,06,16,36,25.70
2012,07,06,16,37,25.80
2012,07,06,16,38,25.90
2012,07,06,16,39,25.80
2012,07,06,16,40,25.80
2012,07,06,16,41,25.80
2012,07,06,16,42,25.80
2012,07,06,16,43,25.80
2012,07,06,16,44,25.90
2012,07,06,16,45,25.90
2012,07,06,16,46,25.90
2012,07,06,16,47,25.90
2012,07,06,16,48,25.90
2012,07,06,16,49,26.00
2012,07,06,16,50,26.00
2012,07,06,16,51,26.00
2012,07,06,16,52,26.00
2012,07,06,16,53,25.90
2012,07,06,16,54,26.00
2012,07,06,16,55,26.00
2012,07,06,16,56,26.10
2012,07,06,16,57,26.00
2012,07,06,16,58,25.90
2012,07,06,16,59,25.80
2012,07,06,17,00,25.70
2012,07,06,17,01,25.60
2012,07,06,17,02,25.50
2012,07,06,17,03,25.50
2012,07,06,17,04,25.50
2012,07,06,17,05,25.40
2012,07,06,17,06,25.40
2012,07,06,17,07,25.40
2012,07,06,17,08,25.50
2012,07,06,17,09,25.60
2012,07,06,17,10,25.60
2012,07,06,17,11,25.50
2012,07,06,17,12,25.50
2012,07,06,17,13,25.50
2012,07,06,17,14,25.60
2012,07,06,17,15,25.70
2012,07,06,17,16,25.70
2012,07,06,17,17,25.70
2012,07,06,17,18,25.70
2012,07,06,17,19,25.80